Date String (YYYY-MM-DD hh:mm:ss) UTC,Instrument flags,Ambient pressure (hPa),Sample flow (lpm),Bypass flow (lpm),Sample temperature (°C),Ambient temperature (°C),ASC tube jacket temperature (°C),LED temperature (°C),Box temperature (°C),Sample RH (%),Span deviation,Mass concentration (μg/m³),Mass concentration (μg/m³),Mass concentration (μg/m³)
DateTimeUTC,F1_M11,P_M11,Q1_M11,Q2_M11,T1_M11,T2_M11,T3_M11,T4_M11,T5_M11,U1_M11,ZSPAN_M11,X2_M11,X0_M11,X1_M11
2023-02-18 07:00:00,,0824.9,4.96,0.00,21.4,21.9,00.0,30.2,23.4,05.5,0000.0,0000.78,0001.14,0000.63
2023-02-18 07:01:00,,0824.8,5.02,0.00,21.6,22.6,00.0,30.3,23.6,05.5,0000.0,0000.76,0001.11,0000.63
2023-02-18 07:02:00,,0824.7,5.01,0.00,21.7,22.1,00.0,30.3,23.6,05.5,0000.0,0000.75,0001.08,0000.62
2023-02-18 07:03:00,,0824.7,4.96,0.00,21.7,21.5,00.0,30.4,23.5,05.4,0000.0,0000.73,0001.06,0000.61
2023-02-18 07:04:00,,0824.7,5.01,0.00,21.7,21.1,00.0,30.4,23.4,05.5,0000.0,0000.73,0001.06,0000.60
2023-02-18 07:05:00,,0824.7,5.02,0.00,21.6,20.7,00.0,30.4,23.3,05.2,0000.0,0000.72,0001.05,0000.60
2023-02-18 07:06:00,,0824.6,5.01,0.00,21.6,20.5,00.0,30.5,23.3,05.6,0000.0,0000.72,0001.03,0000.59
2023-02-18 07:07:00,,0824.6,5.00,0.00,21.6,20.4,00.0,30.5,23.3,06.0,0000.0,0000.68,0000.95,0000.57
2023-02-18 07:08:00,,0824.6,5.01,0.00,21.6,20.2,00.0,30.5,23.2,06.1,0000.0,0000.66,0000.93,0000.56
2023-02-18 07:09:00,,0824.6,5.01,0.00,21.6,20.1,00.0,30.5,23.2,06.3,0000.0,0000.66,0000.94,0000.56
2023-02-18 07:10:00,,0824.6,5.00,0.00,21.6,19.9,00.0,30.5,23.2,06.1,0000.0,0000.68,0000.98,0000.57
2023-02-18 07:11:00,,0824.6,5.00,0.00,21.5,19.8,00.0,30.5,23.2,06.1,0000.0,0000.68,0000.90,0000.58
2023-02-18 07:12:00,,0824.6,5.00,0.00,21.5,19.7,00.0,30.5,23.2,05.9,0000.0,0000.68,0000.91,0000.58
2023-02-18 07:13:00,,0824.6,4.97,0.00,21.5,19.7,00.0,30.4,23.1,06.0,0000.0,0000.73,0000.99,0000.59
2023-02-18 07:14:00,,0824.5,5.01,0.00,21.5,19.6,00.0,30.4,23.1,06.3,0000.0,0000.75,0001.19,0000.60
2023-02-18 07:15:00,,0824.6,5.00,0.00,21.5,19.6,00.0,30.4,23.1,06.4,0000.0,0000.79,0001.44,0000.62
2023-02-18 07:16:00,,0824.7,4.96,0.00,21.5,20.6,00.0,30.3,23.3,06.7,0000.0,0000.80,0001.48,0000.63
2023-02-18 07:17:00,,0824.8,5.05,0.00,21.6,22.0,00.0,30.3,23.6,06.7,0000.0,0000.79,0001.44,0000.64
2023-02-18 07:18:00,,0824.6,4.98,0.00,21.8,22.8,00.0,30.3,23.9,06.4,0000.0,0000.81,0001.47,0000.66
2023-02-18 07:19:00,,0824.8,5.05,0.00,21.9,22.3,00.0,30.4,23.8,06.2,0000.0,0000.83,0001.50,0000.67
2023-02-18 07:20:00,,0824.6,5.01,0.00,21.9,21.7,00.0,30.5,23.7,06.3,0000.0,0000.85,0001.54,0000.68
2023-02-18 07:21:00,,0824.6,5.00,0.00,21.9,21.3,00.0,30.5,23.7,06.4,0000.0,0000.87,0001.56,0000.68
2023-02-18 07:22:00,,0824.5,4.97,0.00,21.8,20.9,00.0,30.6,23.6,06.6,0000.0,0000.87,0001.58,0000.68
2023-02-18 07:23:00,,0824.6,4.98,0.00,21.8,20.6,00.0,30.6,23.5,06.4,0000.0,0000.87,0001.57,0000.68
2023-02-18 07:24:00,,0824.5,5.01,0.00,21.8,20.3,00.0,30.6,23.4,06.0,0000.0,0000.85,0001.53,0000.69
2023-02-18 07:25:00,,0824.4,4.99,0.00,21.8,20.2,00.0,30.6,23.4,06.0,0000.0,0000.84,0001.36,0000.68
2023-02-18 07:26:00,,0824.5,5.00,0.00,21.7,20.1,00.0,30.6,23.4,06.0,0000.0,0000.81,0001.16,0000.66
2023-02-18 07:27:00,,0824.7,5.00,0.00,21.7,20.0,00.0,30.6,23.3,06.0,0000.0,0000.80,0001.12,0000.65
2023-02-18 07:28:00,,0824.6,5.00,0.00,21.7,19.9,00.0,30.6,23.3,06.0,0000.0,0000.80,0001.12,0000.66
2023-02-18 07:29:00,,0824.7,5.00,0.00,21.7,19.8,00.0,30.6,23.3,06.1,0000.0,0000.83,0001.17,0000.65
2023-02-18 07:30:00,,0824.5,4.99,0.00,21.6,19.8,00.0,30.6,23.2,06.4,0000.0,0000.84,0001.18,0000.66
2023-02-18 07:31:00,,0824.4,4.99,0.00,21.6,19.7,00.0,30.5,23.2,06.3,0000.0,0000.84,0001.20,0000.66
2023-02-18 07:32:00,,0824.4,5.00,0.00,21.6,20.0,00.0,30.5,23.3,06.3,0000.0,0000.83,0001.21,0000.64
2023-02-18 07:33:00,,0824.4,4.98,0.00,21.7,21.2,00.0,30.5,23.5,06.4,0000.0,0000.82,0001.19,0000.63
2023-02-18 07:34:00,,0824.4,4.99,0.00,21.8,22.5,00.0,30.4,23.8,06.3,0000.0,0000.79,0001.14,0000.62
2023-02-18 07:35:00,,0824.4,5.04,0.00,21.9,22.6,00.0,30.5,23.9,06.1,0000.0,0000.79,0001.14,0000.61
2023-02-18 07:36:00,,0824.4,4.98,0.00,22.0,22.1,00.0,30.6,23.9,06.0,0000.0,0000.79,0001.15,0000.60
2023-02-18 07:37:00,,0824.4,5.01,0.00,22.0,21.5,00.0,30.6,23.8,06.1,0000.0,0000.79,0001.12,0000.60
2023-02-18 07:38:00,,0824.5,5.00,0.00,21.9,21.1,00.0,30.7,23.7,06.2,0000.0,0000.80,0001.14,0000.61
2023-02-18 07:39:00,,0824.4,4.98,0.00,21.9,20.8,00.0,30.7,23.6,05.9,0000.0,0000.81,0001.19,0000.60
2023-02-18 07:40:00,,0824.4,5.01,0.00,21.9,20.6,00.0,30.7,23.6,06.1,0000.0,0000.76,0001.10,0000.59
2023-02-18 07:41:00,,0824.4,5.01,0.00,21.9,20.4,00.0,30.7,23.6,06.1,0000.0,0000.75,0001.10,0000.58
2023-02-18 07:42:00,,0824.4,5.01,0.00,21.9,20.3,00.0,30.7,23.5,06.1,0000.0,0000.71,0001.03,0000.57
2023-02-18 07:43:00,,0824.4,4.98,0.00,21.8,20.2,00.0,30.7,23.4,06.1,0000.0,0000.70,0001.06,0000.56
2023-02-18 07:44:00,,0824.4,5.01,0.00,21.8,20.1,00.0,30.7,23.4,06.3,0000.0,0000.69,0001.05,0000.55
2023-02-18 07:45:00,,0824.4,4.99,0.00,21.8,19.9,00.0,30.7,23.4,06.5,0000.0,0000.71,0001.10,0000.56
2023-02-18 07:46:00,,0824.3,4.99,0.00,21.7,19.9,00.0,30.7,23.4,06.7,0000.0,0000.72,0001.15,0000.56
2023-02-18 07:47:00,,0824.4,5.00,0.00,21.7,19.8,00.0,30.7,23.3,06.8,0000.0,0000.73,0001.48,0000.57
2023-02-18 07:48:00,,0824.3,5.00,0.00,21.7,19.7,00.0,30.6,23.3,06.8,0000.0,0000.76,0001.64,0000.58
2023-02-18 07:49:00,,0824.3,5.02,0.00,21.7,19.9,00.0,30.6,23.3,06.5,0000.0,0000.77,0001.68,0000.58
2023-02-18 07:50:00,,0824.3,5.00,0.00,21.7,21.1,00.0,30.5,23.6,06.7,0000.0,0000.76,0001.64,0000.59
2023-02-18 07:51:00,,0824.2,5.00,0.00,21.9,22.4,00.0,30.5,23.9,06.5,0000.0,0000.78,0001.66,0000.59
2023-02-18 07:52:00,,0824.2,5.02,0.00,22.0,23.3,00.0,30.6,24.2,06.3,0000.0,0000.75,0001.58,0000.58
2023-02-18 07:53:00,,0824.2,5.10,0.00,22.1,22.8,00.0,30.6,24.1,05.6,0000.0,0000.77,0001.60,0000.58
2023-02-18 07:54:00,,0824.2,5.01,0.00,22.1,22.2,00.0,30.7,24.0,05.5,0000.0,0000.76,0001.49,0000.58
2023-02-18 07:55:00,,0824.2,5.00,0.00,22.1,21.7,00.0,30.8,23.9,06.1,0000.0,0000.76,0001.48,0000.59
2023-02-18 07:56:00,,0824.2,4.99,0.00,22.1,21.3,00.0,30.8,23.9,06.0,0000.0,0000.75,0001.46,0000.58
2023-02-18 07:57:00,,0824.2,5.00,0.00,22.1,21.0,00.0,30.8,23.8,05.4,0000.0,0000.73,0001.43,0000.57
2023-02-18 07:58:00,,0824.2,4.98,0.00,22.1,20.7,00.0,30.8,23.7,05.2,0000.0,0000.72,0001.10,0000.57
2023-02-18 07:59:00,,0824.1,5.01,0.00,22.0,20.5,00.0,30.9,23.7,05.5,0000.0,0000.72,0001.04,0000.55
